Location: Crescent
(42.8242°N, 73.7329°W)
Time: 18:13:37
(UTC+00:00)

Vanguard 1 - Pass Details

Date: 24 February 2026
Orbit: 653 x 3818 km, 34.2° (Epoch: 5 March)

Event Time Altitude Azimuth Distance (km) Brightness Sun altitude
Rises 16:59:27 0° 201° (SSW) 3,459 13.7 37.9°
Reaches altitude 10° 17:02:19 10° 183° (S) 2,809 13.7 37.9°
Maximum altitude 17:07:08 20° 138° (SE) 2,662 13.2 37.9°
Drops below altitude 10° 17:13:57 10° 96° (E) 4,181 13.4 37.9°
Sets 17:19:34 0° 83° (E) 5,832 13.9 37.8°
